This demonstration page uses our WeatherBlox Daily Observations layout. Learn more.

Hourly Observations for March 28, 2018

Temp ( °F °C ) Dew Point ( °F °C ) Humidity (%) Winds ( mph kmh ) Pressure ( in mb ) Visibility ( mi km ) Precip ( " mm )
12:15 am 00:15 Clear 37 2.5 31 -0.5 81 81 S 8 13 30.09 1019 10 16.0934 0 0
12:35 am 00:35 Clear 37 2.7 31 -0.4 80 80 SSW 6 9 30.09 1019 10 16.0934 0 0
12:50 am 00:50 Clear 37 2.5 31 -0.5 81 81 Calm 30.03 1017 10 16.0934 0 0
1:15 am 01:15 Clear 37 2.5 31 -0.4 81 81 S 7 11 30.03 1017 10 16.0934 0 0
1:35 am 01:35 Clear 36 2.2 31 -0.5 83 83 S 7 11 30.06 1018 10 16.0934 0 0
1:55 am 01:55 Clear 36 2 31 -0.6 83 83 S 6 9 30.06 1018 10 16.0934 0 0
2:15 am 02:15 Clear 34 1.1 30 -1 86 86 S 5 7 30.06 1018 10 16.0934 0 0
2:35 am 02:35 Clear 33 0.3 30 -0.9 92 92 S 6 9 30.06 1018 10 16.0934 0 0
2:55 am 02:55 Clear 32 0.1 30 -1.1 92 92 S 6 9 30.03 1017 10 16.0934 0 0
3:15 am 03:15 Clear 33 0.8 31 -0.7 90 90 S 7 11 30.03 1017 10 16.0934 0 0
3:35 am 03:35 Clear 33 0.5 30 -1.1 89 89 SSW 3 6 30.03 1017 10 16.0934 0 0
3:55 am 03:55 Clear 32 0.1 30 -1.3 90 90 SSW 5 7 30 1016 10 16.0934 0 0
4:15 am 04:15 Clear 32 0.1 30 -1.1 92 92 SW 7 11 30 1016 10 16.0934 0 0
4:35 am 04:35 Clear 32 0.1 30 -1.1 92 92 SW 6 9 30 1016 10 16.0934 0 0
4:55 am 04:55 Clear 33 0.7 30 -0.9 89 89 SW 9 15 30 1016 10 16.0934 0 0
5:15 am 05:15 Clear 32 0 30 -1.1 92 92 SW 6 9 29.97 1015 10 16.0934 0 0
5:35 am 05:35 Clear 32 0 30 -1.1 92 92 SW 5 7 29.97 1015 10 16.0934 0 0
5:55 am 05:55 Clear 32 0 30 -1.2 92 92 SSW 6 9 29.97 1015 10 16.0934 0 0
6:15 am 06:15 Clear 31 -0.7 29 -1.8 92 92 Calm 29.97 1015 10 16.0934 0 0
6:35 am 06:35 Clear 30 -1.2 28 -2 94 94 SSW 3 6 29.97 1015 10 16.0934 0 0
6:55 am 06:55 Clear 30 -0.9 29 -1.6 95 95 S 8 13 29.97 1015 10 16.0934 0 0
7:15 am 07:15 Clear 30 -1.3 28 -2 95 95 SSE 5 7 29.97 1015 10 16.0934 0 0
7:35 am 07:35 Sunny 29 -1.9 28 -2.4 96 96 S 3 6 30 1016 10 16.0934 0 0
7:55 am 07:55 Sunny 30 -1.3 29 -1.9 96 96 SSE 5 7 29.97 1015 10 16.0934 0 0
8:15 am 08:15 Sunny 31 -0.7 30 -1.1 97 97 S 7 11 29.97 1015 10 16.0934 0 0
8:35 am 08:35 Sunny 32 0 31 -0.6 96 96 S 3 6 29.97 1015 10 16.0934 0 0
8:55 am 08:55 Sunny 33 0.4 32 -0.2 96 96 SSE 3 6 30 1016 10 16.0934 0 0
9:15 am 09:15 Sunny 34 1 33 0.3 95 95 S 7 11 30 1016 10 16.0934 0 0
9:35 am 09:35 Sunny 38 3.2 35 1.4 88 88 SSW 5 7 29.97 1015 10 16.0934 0 0
9:55 am 09:55 Sunny 40 4.7 35 1.9 82 82 SW 8 13 29.94 1014 10 16.0934 0 0
10:15 am 10:15 Sunny 42 5.8 35 1.9 76 76 SW 8 13 29.91 1013 10 16.0934 0 0
10:35 am 10:35 Partly Cloudy 45 7.2 37 2.5 72 72 WNW 9 15 29.91 1013 10 16.0934 0 0
10:55 am 10:55 Sunny 46 7.9 36 2.3 68 68 W 5 7 29.91 1013 10 16.0934 0 0
11:15 am 11:15 Sunny 48 8.9 37 2.6 65 65 WSW 3 6 29.88 1012 10 16.0934 0 0
11:35 am 11:35 Sunny 50 10.1 37 2.8 61 61 S 5 7 29.88 1012 10 16.0934 0 0
11:55 am 11:55 Sunny 53 11.7 38 3.1 56 56 S 6 9 29.85 1011 10 16.0934 0 0
12:15 pm 12:15 Partly Cloudy 56 13.1 37 2.5 49 49 S 6 9 29.83 1010 10 16.0934 0 0
12:35 pm 12:35 Partly Cloudy 56 13.6 36 2.4 47 47 SSW 7 11 29.83 1010 10 16.0934 0 0
12:55 pm 12:55 Partly Cloudy 58 14.3 36 2.4 45 45 WSW 7 11 29.83 1010 10 16.0934 0 0
1:15 pm 13:15 Sunny 58 14.5 36 2.3 44 44 SSW 8 13 29.77 1008 10 16.0934 0 0
1:35 pm 13:35 Partly Cloudy 59 14.8 37 2.7 44 44 SW 6 9 29.77 1008 10 16.0934 0 0
1:55 pm 13:55 Mostly Cloudy 59 14.8 37 2.8 45 45 SSW 7 11 29.77 1008 10 16.0934 0 0
2:15 pm 14:15 Cloudy 59 14.8 37 2.6 44 44 Calm 29.77 1008 10 16.0934 0 0
2:35 pm 14:35 Cloudy 58 14.2 37 2.6 46 46 Calm 29.77 1008 10 16.0934 0 0
2:55 pm 14:55 Cloudy 57 13.7 38 3.1 49 49 NNW 9 15 29.8 1009 10 16.0934 0 0
3:15 pm 15:15 Cloudy 57 13.7 36 2.3 46 46 NNW 7 11 29.8 1009 10 16.0934 0 0
3:35 pm 15:35 Cloudy 55 13 35 1.7 46 46 N 8 13 29.8 1009 10 16.0934 0 0
3:55 pm 15:55 Cloudy with Drizzle 55 12.5 36 2.2 50 50 N 7 11 29.8 1009 10 16.0934 0 0
4:15 pm 16:15 Cloudy 54 12.2 36 2.3 51 51 N 10 17 29.8 1009 10 16.0934 0 0
4:35 pm 16:35 Cloudy 52 11.3 38 3.5 59 59 N 16 26 29.8 1009 10 16.0934 0 0
4:55 pm 16:55 Cloudy 53 11.8 37 3 55 55 NNE 16 26 29.8 1009 10 16.0934 0 0
5:15 pm 17:15 Cloudy with Light Rain 53 11.5 39 3.8 59 59 NNE 17 28 29.8 1009 10 16.0934 0 0
5:35 pm 17:35 Cloudy 53 11.5 38 3.2 57 57 NNE 20 31 29.8 1009 10 16.0934 0 0
5:55 pm 17:55 Cloudy 52 11.3 39 3.7 60 60 N 20 31 29.83 1010 10 16.0934 0 0
6:15 pm 18:15 Cloudy 51 10.8 38 3.3 60 60 N 21 33 29.85 1011 10 16.0934 0 0
6:35 pm 18:35 Cloudy 50 10 38 3.1 63 63 N 20 31 29.88 1012 10 16.0934 0 0
6:55 pm 18:55 Mostly Cloudy 49 9.5 37 3 64 64 N 23 37 29.88 1012 10 16.0934 0 0
7:15 pm 19:15 Partly Cloudy 48 8.8 37 3 67 67 N 15 24 29.88 1012 10 16.0934 0 0
7:35 pm 19:35 Cloudy 47 8.3 37 2.7 68 68 N 15 24 29.91 1013 10 16.0934 0 0
7:55 pm 19:55 Cloudy 47 8.3 37 2.5 67 67 NNE 17 28 29.91 1013 10 16.0934 0 0
8:15 pm 20:15 Cloudy 46 8 37 2.6 69 69 NNE 13 20 29.94 1014 10 16.0934 0 0
8:35 pm 20:35 Cloudy 46 7.9 36 2.1 67 67 NNE 10 17 29.94 1014 10 16.0934 0 0
8:55 pm 20:55 Cloudy 46 7.5 36 2.3 70 70 NNE 10 17 29.97 1015 10 16.0934 0 0
9:15 pm 21:15 Cloudy 46 7.5 37 2.5 71 71 NNE 14 22 29.97 1015 10 16.0934 0 0
9:35 pm 21:35 Cloudy 45 7.4 37 2.5 71 71 NNE 17 28 30 1016 10 16.0934 0 0
9:55 pm 21:55 Cloudy 45 7 37 2.5 73 73 NNE 16 26 30 1016 10 16.0934 0 0
10:15 pm 22:15 Cloudy 44 6.5 36 2 73 73 NNE 18 30 30.03 1017 10 16.0934 0 0
10:35 pm 22:35 Cloudy 43 6 35 1.9 75 75 NNE 16 26 30.03 1017 10 16.0934 0 0
10:55 pm 22:55 Cloudy 42 5.4 35 1.8 78 78 NNE 10 17 30.06 1018 10 16.0934 0 0
11:15 pm 23:15 Mostly Cloudy 40 4.5 35 1.5 81 81 NNE 12 19 30.06 1018 10 16.0934 0 0
11:35 pm 23:35 Clear 39 3.7 34 1 83 83 NNE 12 19 30.06 1018 10 16.0934 0 0
11:55 pm 23:55 Clear 37 3 33 0.5 84 84 NNE 10 17 30.06 1018 10 16.0934 0 0

Powered by AerisWeather